www.pogodaiklimat.ru

Погода и климат >> Архив погоды >> Россия >> Калмыкия >> Яшкуль


АРХИВ ПОГОДЫ в Яшкуле

Время (UTC), дата Ветер
(напр.,м/с)
 
Видим.   Явления Облачность Т
(С)
Тd
(С)
f
(%)
Тe
(С)
Тes
(С)
Комфортность P
(гПа)
Po
(гПа)
Тmin
(С)
Tmax
(С)
R
(мм)
R24
(мм)
S
(см)
06 17.08 В 6 20 км 8/0
[Ac trans]
+29.4 +8.2 27 +29 +31 жарко 1015.2 1016.0
09 17.08 В 7-10
{10}
20 км 8/4 1000 м
[Cu hum Ac trans]
+33.8 +5.5 17 +31 +33 жарко 1014.4 1015.2
12 17.08 В 7-12
{14}
20 км 5/0
[Ac trans]
+34.5 +2.1 13 +31 +33 жарко 1013.8 1014.6
15 17.08 В 8-12
{15}
20 км ясно +31.7 +2.6 16 +29 +29 жарко 1014.6 1015.4 +34.9
18 17.08 В 5
{13}
20 км ясно +26.1 +4.5 25 +25 +25 комфорт 1016.6 1017.4
21 17.08 СВ 3 20 км ясно +21.8 +8.1 41 +23 +23 комфорт 1016.0 1016.8
00 18.08 СВ 4 20 км ясно +19.3 +5.0 39 +20 +20 тепло 1015.7 1016.5
03 18.08 СВ 5 20 км 8/0
[Ci fib]
+20.4 +2.5 31 +21 +21 комфорт 1016.0 1016.8 +18.7
06 18.08 СВ 8-12
{13}
20 км 8/0
[Ac trans Ci fib]
+29.9 +0.2 15 +27 +28 жарко 1015.9 1016.7
09 18.08 В 7-13
{13}
20 км 8/0
[Ac trans Ci fib]
+34.4 -1.1 10 +31 +33 жарко 1015.9 1016.7
12 18.08 В 7-12
{14}
20 км 8/0
[Ac trans Ci fib]
+33.9 +0.8 12 +31 +32 жарко 1015.3 1016.1
15 18.08 ЮВ 6-11
{12}
20 км 5/0
[Ac trans Ci fib]
+31.6 +3.1 16 +29 +29 жарко 1016.4 1017.2 +35.1
18 18.08 Ю 2
{11}
20 км ясно +25.8 +11.8 42 +27 +27 жарко 1017.8 1018.6
21 18.08 штиль 0 20 км ясно +20.5 +10.3 52 +22 +22 комфорт 1017.6 1018.5
00 19.08 В 2 20 км ясно +17.9 +9.9 59 +18 +18 по сезону 1017.7 1018.5
03 19.08 С 1 20 км ясно +17.3 +8.7 57 +18 +19 прохладно 1017.9 1018.7 +16.0
06 19.08 В 4 20 км ясно +30.2 +0.8 15 +27 +33 жарко 1018.5 1019.3
09 19.08 В 6-11
{11}
20 км ясно +34.3 -2.6 9 +30 +36 жарко 1017.5 1018.3
12 19.08 В 7-12
{20}
20 км 3/0
[Ci fib]
+35.1 -2.2 9 +31 +33 жарко 1016.7 1017.5
15 19.08 В 5
{13}
20 км 3/0
[Ci fib]
+33.2 -0.0 12 +30 +30 жарко 1016.9 1017.7 +35.3
18 19.08 В 2
{11}
20 км ясно +24.9 -0.7 18 +23 +23 комфорт 1018.4 1019.2
21 19.08 В 3 20 км ясно +24.2 +8.7 37 +25 +25 комфорт 1017.9 1018.8
00 20.08 СВ 2 20 км ясно +23.1 +9.0 41 +25 +25 комфорт 1017.6 1018.5
03 20.08 СВ 3 20 км 8/0
[Ac und]
+22.5 +8.2 40 +24 +24 комфорт 1017.5 1018.3 +22.2
06 20.08 В 6 20 км 10/4 600 м
[Cb cap Ac As]
+27.9 +11.3 36 +29 +29 жарко 1018.0 1018.8
09 20.08 В 9-13
{14}
20 км 9/6 600 м
[Cb cap Ac trans]
+32.4 +4.6 17 +30 +30 жарко 1017.5 1018.3
12 20.08 В 9-14
{16}
20 км 9/4 600 м
[Cu med, cong Ac trans]
+33.7 +5.0 17 +31 +32 жарко 1016.1 1016.9
15 20.08 В 7-14
{18}
20 км 10/6 600 м
[Cu med, cong Ac As]
+31.0 +2.8 17 +29 +29 жарко 1016.6 1017.4 +34.2
18 20.08 В 5
{14}
20 км 10/6 600 м
[Cu med, cong Ac As]
+28.0 +4.9 23 +27 +27 жарко 1018.2 1019.0
21 20.08 В 4 20 км 10/0
[Ac As]
+25.5 +6.0 29 +25 +25 комфорт 1017.4 1018.2
00 21.08 СВ 3 20 км 10/0
[Ac As]
+23.4 +5.7 32 +24 +24 комфорт 1017.1 1017.9
03 21.08 СВ 3 20 км 10/0
[Ac As]
+22.7 +3.8 29 +23 +23 комфорт 1016.4 1017.2 +22.4
06 21.08 СВ 5 20 км 9/0
[Ac As]
+25.3 +2.3 22 +24 +26 комфорт 1016.1 1016.9
09 21.08 СВ 7-10
{10}
20 км 8/0
[Ac und]
+30.2 +6.3 22 +29 +31 жарко 1014.8 1015.6
12 21.08 В 6-11
{14}
20 км ясно +33.4 +3.3 15 +31 +34 жарко 1012.6 1013.4
15 21.08 В 6-10
{16}
20 км ясно +30.7 +3.9 18 +28 +29 жарко 1012.4 1013.2 +33.6
18 21.08 В 4
{13}
20 км ясно +24.8 +4.0 26 +24 +24 комфорт 1013.1 1013.9
21 21.08 В 5 20 км ясно +22.0 +8.0 41 +23 +23 комфорт 1012.2 1013.0
00 22.08 В 4 20 км ясно +19.9 +10.4 54 +21 +21 комфорт 1011.1 1011.9
03 22.08 В 6 20 км ясно +21.5 +12.1 55 +24 +24 комфорт 1010.4 1011.2 +19.4
06 22.08 В 6
{11}
20 км ясно +29.8 +8.8 27 +29 +33 жарко 1010.8 1011.6
09 22.08 В 8-14
{15}
20 км пыльный позёмок {метель} ясно +35.5 +1.3 12 +32 +35 жарко 1009.4 1010.1
12 22.08 В 10-15
{19}
20 км пыльный позёмок {метель} ясно +35.8 -0.2 10 +32 +32 жарко 1008.8 1009.5
15 22.08 В 7-12
{17}
20 км {метель} ясно +32.7 -0.4 12 +29 +29 жарко 1009.4 1010.2 +36.4
18 22.08 В 4
{13}
20 км {метель} ясно +26.7 +5.9 26 +26 +26 жарко 1009.4 1011.3
21 22.08 В 3 20 км {метель} ясно +21.6 +8.8 44 +23 +23 комфорт 1009.6 1010.4
00 23.08 В 3 20 км ясно +20.0 +11.5 58 +22 +22 комфорт 1009.1 1009.9
03 23.08 В 3 20 км 8/0
[Ac trans Ci fib]
+19.4 +15.0 76 +21 +22 комфорт 1009.8 1010.6 +17.6
06 23.08 В 10-16
{16}
20 км 8/0
[Ac trans]
+29.9 +13.6 37 +31 +32 жарко 1009.2 1010.0
09 23.08 В 13-22
{23}
20 км пыльный позёмок {метель} 8/0
[Ac trans]
+33.7 +3.9 15 +31 +31 жарко 1007.7 1008.5
12 23.08 ЮВ 11-18
{23}
20 км пыльный позёмок {метель} 8/0
[Ac trans]
+34.3 +4.7 16 +32 +32 жарко 1008.3 1009.1
15 23.08 З 8-14
{19}
20 км {метель} 9/4 600 м
[Cb cap Ac trans]
+25.9 +18.1 62 +30 +30 душно 1011.8 1012.6
18 23.08 СЗ 3
{14}
10 км слабый ливневой дождь {метель} 10/10 600 м
[Cb cap]
+20.5 +17.6 83 +24 +24 комфорт 1014.8 1015.6
21 23.08 З 2 20 км {ливн. осадки} 8/0
[Ac trans]
+19.6 +18.0 90 +23 +23 комфорт 1015.4 1016.2
00 24.08 ЮЗ 2 20 км {ливн. осадки} ясно +18.4 +17.2 93 +20 +20 тепло 1015.9 1016.7
03 24.08 СЗ 1 20 км {ливн. осадки} ясно +17.8 +16.3 91 +19 +19 по сезону 1017.4 1018.2 +17.2 0.5

 

Местоположение метеостанции Яшкуль (Калмыкия, Россия): широта 46.18 долгота 45.35 высота над уровнем моря -7 м.

В архиве по умолчанию представлена погода в Яшкуле за последнюю неделю. Архивные данные за месяц целиком и за предыдущие месяцы, начиная с января 2011 года, Вы можете получить, выбрав интересующий диапазон дат из раскрывающегося списка и нажав кнопку "Ввод!".

Внимание! Время в таблицах - всемирное. Для получения местного времени необходимо прибавить поправку, которая в Яшкуле равна 3 ч.

Смотрите также архив погоды в соседних городах и на ближайших метеорологических станциях:

Погода в Утте (Калмыкия, Россия) (56 км)
Погода в Ики-Буруле (Калмыкия, Россия) (70 км)
Погода в Элисте (Калмыкия, Россия) (81 км)
Погода в Комсомольском (Калмыкия, Россия) (106 км)
Погода в Арзгире (Ставропольский край, Россия) (124 км)
Погода в Юсте (Калмыкия, Россия) (129 км)
Погода в Ремонтном (Ростовская область, Россия) (136 км)
Погода в Кетченерах (Калмыкия, Россия) (140 км)
Погода в Лимане (Астраханская область, Россия) (151 км)
Погода в Дивном (Ставропольский край, Россия) (157 км)

Пояснения к столбцам:

Ветер - указаны скорость ветра в м/с - средняя за 10 мин, порывы в срок и между сроками (в фигурных скобках) и направление, откуда дует ветер: С - северный, СВ - северо-восточный, В - восточный, ЮВ - юго-восточный, Ю - южный, ЮЗ - юго-западный, З - западный, СЗ - северо-западный.
Видимость - горизонтальная дальность видимости в метрах или километрах. При видимости от 1 до 10 км при отсутствии осадков обычно наблюдается дымка, при ухудшении видимости до 1 км и менее - туман. В сухую погоду видимость может ухудшаться дымом, пылью или мглою.
Явления - указаны атмосферные явления, наблюдавшиеся в срок или в последний час перед сроком; фигурными скобками обозначены явления, наблюдавшиеся между сроками (за 1-3 часа до срока); квадратными скобками обозначены град или гололедные отложения с указанием их диаметра в мм.
Облачность - указаны через наклонную черту общая и нижняя облачность в баллах и высота нижней границы облаков в метрах; квадратными скобками обозначены формы облаков: Ci - перистые, Cs - перисто-слоистые, Cc - перисто-кучевые, Ac - высококучевые, As - высокослоистые, Sc - слоисто-кучевые, Ns - слоисто-дождевые, Cu - кучевые, Cb - кучево-дождевые. Подробнее классификацию облаков см. в Атласе облаков (PDF).
T - Температура воздуха - температура, измеренная на высоте 2 м над землей.
Td - Температура точки росы - температура, при понижении до которой содержащийся в воздухе водяной пар достигнет насыщения.
f - Относительная влажность воздуха - влажноcть воздуха, измеренная на высоте 2 м над землей.
Te - Эффективная температура - температура, которую ощущает одетый по сезону человек в тени. Характеристика душности погоды. При расчете учитывается влияние влажности воздуха и скорости ветра на теплоощущения человека.
Tes - Эффективная температура на солнце - температура, которую ощущает человек, с поправкой на солнечный нагрев. Характеристика знойности погоды. Зависит от высоты солнца над горизонтом, облачности и скорости ветра. Ночью, в пасмурную погоду, а также при ветре 12 м/с и более поправка равна нулю.
P - Атмосферное давление - приведенное к уровню моря атмосферное давление.
Po - Атмосферное давление - измеренное на уровне метеостанции атмосферное давление.
Tmin - Минимальная температура - минимум температуры воздуха на высоте 2 м над землей.
Tmax - Максимальная температура - максимум температуры воздуха на высоте 2 м над землей.
R - Количество осадков - Количество выпавших осадков за период времени, мм. При наведении курсора мыши на число - период времени, за который выпало указанное количество осадков.
R24 - Количество осадков - Количество выпавших осадков за 24 часа, мм.
S - Снежный покров - Высота снежного покрова, см. При наведении курсора мыши на число - состояние снежного покрова и степень покрытия местности в баллах.